Вернуться в каталог

FREGAT DEB

LostUNKNOWN
NORAD 46636·DEBRIS·🇷🇺 Russia

Запущен Jul 18, 2011 с Baikonur Cosmodrome

Loading…

Ближайшие Пролёты (ближайшие 24 часа)

TLE

УстаревшееSource: Space-Track

Эпоха: Mar 30, 2021, 12:02 UTC

1 46636U 11037NC  21089.50155282 -.00034330  00000-0 -44537+0 0  9992
2 46636  51.5379 208.5190 1778875  90.7842 289.6021  9.91559165 21129

Отслеживайте FREGAT DEB в реальном времени с AllMySat

Download on the App Store